Regional Weather Roundup
Issued by NWS

Home | Current Version | Previous Version | Text Only | Print | Product List | Glossary Off
Versions: 1 2 3 4 5 6 7 8 9 10 11 12 13 14 15 16 17 18 19 20 21 22 23 24 25 26 27 28 29 30 31 32 33 34 35 36 37 38 39 40 41 42 43 44 45 46 47 48 49 50

130
ASUS43 KIND 260659
RWRIN

WEATHER ROUNDUP FOR INDIANA
NATIONAL WEATHER SERVICE INDIANAPOLIS IN
300 AM EDT FRI MAY 26 2017

NOTE: "FAIR" INDICATES FEW OR NO CLOUDS BELOW 12,000 FEET WITH NO
SIGNIFICANT WEATHER AND/OR OBSTRUCTIONS TO VISIBILITY.

* - STATION DOES NOT REPORT WEATHER SUCH AS PRECIPITATION OR FOG.

+ - STATION NOT QUALITY CONTROLLED BY THE NATIONAL WEATHER SERVICE.
    USE DATA WITH CAUTION...ESPECIALLY DEWPOINT AND RELATIVE
    HUMIDITY OBSERVATIONS.

INZ001>003-010>013-019-020-260800-
NORTHWEST INDIANA

CITY           SKY/WX    TMP DP  RH WIND       PRES   REMARKS
MICHIGAN CITY+ CLEAR     46  46 100 CALM      29.79S FOG
MONTICELLO +   CLEAR     51  49  95 CALM      29.80S
RENSSELAER +   CLEAR     52  50  93 CALM      29.81S FOG

$$

LMZ046-743>745-260800-
SOUTHERN LAKE MICHIGAN

STATION/POSITION TIME  TEMP    WIND        PRES    WAVE
                       AIR SEA DIR/SP/G            HT
                 (UTC) (F)     (DEG/KT/KT) (MB)    (FT)
BURNS HARBOR     0640   55     260/  3/  4 1009.5S
MICHIGAN CITY    0630   53     230/  7/  7   N/A
5NW MICH CITY    0650   51 51  240/  4/  6   N/A     2

$$

INZ004-005-014>016-021>024-260800-
NORTH CENTRAL INDIANA

CITY           SKY/WX    TMP DP  RH WIND       PRES   REMARKS
GOSHEN         CLOUDY    51  48  89 W10       29.77R FOG
SOUTH BEND     CLOUDY    50  50 100 NW6       29.78S

$$

INZ006>009-017-018-025>027-260800-
NORTHEAST INDIANA

CITY           SKY/WX    TMP DP  RH WIND       PRES   REMARKS
ANGOLA *+      CLOUDY    52  43  71 NW6       29.74R
FORT WAYNE     PTCLDY    54  51  90 W10       29.76R
KENDALLVILLE + CLOUDY    52  52 100 W6        29.76R FOG

$$

INZ028-029-035-036-043>045-051>053-260800-
WEST CENTRAL INDIANA

CITY           SKY/WX    TMP DP  RH WIND       PRES   REMARKS
CRAWFORDSVL +  CLEAR     50  50 100 CALM      29.83R FOG
GREENCASTLE +    N/A     50  50 100 CALM      29.84S FOG
LAFAYETTE      FOG       50  50 100 CALM      29.81S VSB 1/2
TERRE HAUTE    CLEAR     52  51  97 CALM      29.83S FOG

$$

INZ030>032-037>040-046>048-054>057-064-065-260800-
CENTRAL INDIANA

CITY           SKY/WX    TMP DP  RH WIND       PRES   REMARKS
INDIANAPOLIS   CLEAR     52  51  97 SW8       29.82S FOG
-EAGLE CREEK   CLEAR     54  51  90 CALM      29.82R
KOKOMO +       CLEAR     55  52  89 W8        29.81R
SHELBYVILLE    CLEAR     57  51  80 W5        29.81S

$$

INZ033-034-041-042-049-050-058-059-260800-
EAST CENTRAL INDIANA

CITY           SKY/WX    TMP DP  RH WIND       PRES   REMARKS
MUNCIE         CLEAR     58  54  86 W9        29.79S
RICHMOND +     PTCLDY    54  52  94 W12       29.81S

$$

INZ060-061-067>069-081>083-085>088-260800-
SOUTHWEST INDIANA

CITY           SKY/WX    TMP DP  RH WIND       PRES   REMARKS
EVANSVILLE     PTCLDY    57  53  86 CALM      29.85S
HUNTINGBURG *+ CLEAR     58  54  86 CALM      29.85S

$$

INZ062-063-066-070>080-084-089>092-260800-
SOUTH CENTRAL AND SOUTHEAST INDIANA

CITY           SKY/WX    TMP DP  RH WIND       PRES   REMARKS
BLOOMINGTON    CLEAR     52  49  89 CALM      29.84R
MADISON *+     PTCLDY    55  54  94 CALM      29.86S
SEYMOUR +      CLEAR     55  55 100 CALM      29.84R

$$





USA.gov is the U.S. government's official web portal to all federal, state and local government web resources and services.